Flag for Russia Weather past 2 weeks in Surgut, Russia

Now
55 °F

Passing clouds.


Feels Like: 55 °F
Forecast: 47 / 60 °F
Wind: 3 mph from Southeast

Location: Surgut Airport

Current Time: Aug 21, 2014 at 4:50:45 AM

Latest Report: Aug 21, 2014 at 4:30 AM


Visibility: 4 mi

Pressure: 30.09 "Hg

Humidity: 77%

Dew point: 48 °F

Location of SurgutLocation

Historic Weather in Surgut — Graph

°F

Surgut temperature yesterday

Maximum temperature yesterday: 66 °F (at 4:00 PM)
Minimum temperature yesterday: 50 °F (at 5:30 AM)
Average temperature yesterday: 58 °F

Past Weeks' High & Low Weather Summary

 TemperatureHumidityPressure
High75 °F (Aug 10, 12:00 PM)100% (Aug 9, 4:00 AM)30.21 "Hg (Aug 9, 4:00 AM)
Low46 °F (Aug 7, 5:00 AM)35% (Aug 14, 2:00 PM)29.45 "Hg (Aug 18, 12:00 AM)
Average60 °F75%29.80 "Hg
* Reported Aug 6 3:00 AM — Aug 21 3:30 AM, Surgut, Weather by CustomWeather, © 2014

Note: Actual official high and low records may vary slightly from our data, if they occured in-between our weather recording intervals... More about our weather records

Advertising

Surgut weather history for previous 24 hours

 ConditionsComfort  
Time TempWeatherWind HumidityBarometerVisibility
3:30 AM
Aug 21
54 °FPassing clouds.3 mph82%30.09 "Hg4 mi
3:00 AM54 °FPassing clouds.3 mph88%30.12 "Hg4 mi
2:30 AM55 °FPassing clouds.3 mph82%30.12 "Hg4 mi
2:00 AM52 °FPassing clouds.3 mph88%30.12 "Hg4 mi
1:30 AM52 °FPassing clouds.1 mph88%30.12 "Hg4 mi
1:00 AM52 °FPassing clouds.1 mph88%30.12 "Hg4 mi
12:30 AM50 °FPassing clouds.No wind94%30.15 "Hg4 mi
12:00 AM50 °FPassing clouds.No wind88%30.15 "Hg4 mi
11:30 PM
Aug 20
50 °FPassing clouds.No wind94%30.15 "Hg4 mi
11:00 PM50 °FPassing clouds.No wind94%30.15 "Hg4 mi
10:30 PM54 °FPassing clouds.No wind88%30.18 "Hg4 mi
10:00 PM52 °FPassing clouds.No wind88%30.18 "Hg4 mi
9:30 PM55 °FPartly sunny.No wind77%30.18 "Hg4 mi
9:00 PM55 °FPartly sunny.No wind82%30.18 "Hg4 mi
8:30 PM59 °FPassing clouds.No wind72%30.18 "Hg4 mi
8:00 PM63 °FPassing clouds.1 mph56%30.18 "Hg4 mi
7:30 PM63 °FPassing clouds.3 mph52%30.18 "Hg4 mi
7:00 PM64 °FPassing clouds.6 mph52%30.18 "Hg4 mi
6:30 PM64 °FPassing clouds.6 mph56%30.18 "Hg4 mi
6:00 PM64 °FPassing clouds.8 mph56%30.21 "Hg4 mi
5:30 PM64 °FPassing clouds.8 mph56%30.21 "Hg4 mi
5:00 PM64 °FPassing clouds.8 mph52%30.21 "Hg4 mi
4:30 PM64 °FScattered clouds.8 mph52%30.21 "Hg4 mi
4:00 PM66 °FScattered clouds.10 mph52%30.21 "Hg4 mi
3:30 PM64 °FScattered clouds.10 mph56%30.21 "Hg4 mi
3:00 PM64 °FScattered clouds.10 mph56%30.21 "Hg4 mi
2:30 PM64 °FScattered clouds.10 mph56%30.21 "Hg4 mi
2:00 PM63 °FPassing clouds.10 mph56%30.21 "Hg4 mi
1:30 PM63 °FScattered clouds.10 mph56%30.21 "Hg4 mi
1:00 PM63 °FScattered clouds.13 mph56%30.21 "Hg4 mi
12:30 PM61 °FScattered clouds.13 mph59%30.21 "Hg4 mi
12:00 PM61 °FScattered clouds.10 mph59%30.21 "Hg4 mi
11:30 AM61 °FScattered clouds.13 mph59%30.18 "Hg4 mi
11:00 AM59 °FScattered clouds.13 mph63%30.18 "Hg4 mi
10:30 AM59 °FScattered clouds.10 mph68%30.18 "Hg4 mi
10:00 AM59 °FScattered clouds.10 mph68%30.18 "Hg4 mi
9:30 AM57 °FScattered clouds.8 mph72%30.15 "Hg4 mi
9:00 AM57 °FPassing clouds.10 mph77%30.15 "Hg4 mi
8:30 AM55 °FPassing clouds.13 mph77%30.15 "Hg4 mi
8:00 AM55 °FSunny.10 mph82%30.12 "Hg4 mi
7:30 AM54 °FSunny.8 mph82%30.12 "Hg4 mi
7:00 AM52 °FSunny.8 mph88%30.12 "Hg4 mi
6:30 AM52 °FSunny.6 mph88%30.09 "Hg4 mi
6:00 AM50 °FClear.6 mph94%30.09 "Hg4 mi
5:30 AM50 °FPassing clouds.6 mph94%30.09 "Hg4 mi
5:00 AM52 °FPassing clouds.6 mph88%30.07 "Hg4 mi
4:30 AM54 °FPassing clouds.6 mph82%30.07 "Hg4 mi
4:00 AM54 °FPassing clouds.8 mph82%30.04 "Hg4 mi
Weather by CustomWeather, © 2014

See weather overviewHow to use our weather pages